Location: La Tine
(46.4708°N, 7.0525°E)
Time: 06:33:00
(UTC+00:00)

ATLAS 2AS CENTAUR R/B - Pass Details

Date: 18 September 2020
Orbit: 939 x 1273 km, 63.7° (Epoch: 19 October)

Event Time Altitude Azimuth Distance (km) Brightness Sun altitude
Rises 21:01:15 0° 217° (SW) 4,190 5.7 -32.6°
Reaches altitude 10° 21:04:00 10° 218° (SW) 3,244 5.1 -32.9°
Enters shadow 21:04:48 14° 218° (SW) 2,980 4.9 -33.0°
Exits shadow 21:11:56 87° 296° (WNW) 1,279 2.9 -33.8°
Maximum altitude 21:11:58 87° 308° (NW) 1,279 2.9 -33.8°
Drops below altitude 10° 21:19:54 10° 39° (NE) 3,226 5.3 -34.7°
Sets 21:22:39 0° 40° (NE) 4,166 5.9 -35.0°
